Tracking 18840 objects as of 18-November-2017
HD Live streaming from Space Station
objects crossing your sky now

FENGYUN 1C DEB

Track FENGYUN 1C DEB now!
10-day predictions


NORAD ID: 33701
Int'l Code: 1999-025DGN
Perigee: 819.1 km
Apogee: 1,042.7 km
Inclination: 98.7 °
Period: 103.5 minutes
Semi major axis: 7301 km
RCS: 0.007 m2 (small)
Launch date: May 10, 1999
Source: People's Republic of China (PRC)
Launch site: Taiyaun Space Center, China (TSC)

Note: This is SATELLITE DEBRIS
aabbcc
Your satellite tracking list
Your tracking list is empty




NASA's NSSDC Master Catalog

Two Line Element Set (TLE):
1 33701U 99025DGN 17319.50923703 +.00000445 +00000-0 +34827-3 0  9999
2 33701 098.6739 063.7873 0153136 072.1437 349.3016 13.91393208494074
Source of the keplerian elements: AFSPC